Location: Wildlife_Club
(35.6000°N, 81.4330°W)
Time: 16:16:55
(UTC-04:00)

Vanguard 2 Rocket - Pass Details

Date: 23 June 2019
Orbit: 554 x 3326 km, 32.9° (Epoch: 15 July)

Event Time Altitude Azimuth Distance (km) Brightness Sun altitude
Rises 21:48:11 0° 232° (SW) 3,387 10.0 -11.4°
Reaches altitude 10° 21:50:18 10° 226° (SW) 2,673 9.4 -11.7°
Maximum altitude 21:56:32 49° 153° (SSE) 1,677 7.8 -12.6°
Drops below altitude 10° 22:07:25 10° 83° (E) 4,582 10.1 -14.3°
Sets 22:12:12 0° 79° (E) 6,048 10.8 -15.0°
